Location: Mentone
(34.5413°N, 85.5351°W)
Time: 04:31:22
(UTC-05:00)

ATLAS 5 CENTAUR R/B - Visible Passes

Search period start: 22 June 2018 00:00
Search period end: 02 July 2018 00:00
Orbit: 601 x 1059 km, 63.4° (Epoch: 18 June)

Date Brightness Start Highest point End Pass type
(mag) Time Alt. Az. Time Alt. Az. Time Alt. Az.
22 Jun 3.8 21:34:18 12° ENE 21:34:18 12° ENE 21:34:47 10° ENE visible
22 Jun 2.7 23:15:44 40° WNW 23:16:13 42° NW 23:20:46 10° NNE visible
23 Jun 3.5 21:14:23 13° E 21:14:23 13° E 21:15:31 10° ENE visible
23 Jun 2.6 22:55:48 34° W 22:57:11 45° NW 23:01:47 10° NNE visible
24 Jun 3.3 20:53:57 13° ESE 20:54:09 13° ESE 20:56:11 10° E visible
24 Jun 2.4 22:35:18 20° WSW 22:38:09 49° NW 22:42:47 10° NNE visible
25 Jun 3.4 20:33:37 10° SE 20:35:11 12° ESE 20:36:45 10° E visible
25 Jun 2.3 22:14:49 10° SW 22:19:07 54° NW 22:23:47 10° NNE visible
26 Jun 2.2 21:55:46 10° SW 22:00:05 58° WNW 22:04:47 10° NNE visible
27 Jun 2.0 21:36:43 10° SW 21:41:03 64° WNW 21:45:46 10° NNE visible
28 Jun 5.4 04:47:20 10° N 04:51:00 16° NE 04:54:51 10° E visible
28 Jun 1.9 21:17:40 10° SW 21:22:01 69° WNW 21:26:46 10° NNE visible
29 Jun 5.4 04:28:28 10° N 04:31:55 15° NE 04:35:32 10° ENE visible
29 Jun 1.8 20:58:38 10° SW 21:03:00 76° WNW 21:07:44 10° NNE visible
30 Jun 5.5 04:09:36 10° N 04:12:49 15° NE 04:16:12 10° ENE visible
30 Jun 1.7 20:39:36 10° SSW 20:43:58 82° WNW 20:48:43 10° NNE visible
30 Jun 5.3 22:29:14 10° NW 22:29:32 10° NW 22:29:50 10° NW visible
01 Jul 5.6 03:50:46 10° NNE 03:53:44 14° NE 03:56:49 10° ENE visible
01 Jul 1.7 20:20:35 10° SSW 20:24:58 89° NW 20:29:42 10° NNE visible
01 Jul 5.3 22:09:18 10° NW 22:10:27 11° NW 22:11:37 10° NNW visible
